Ohio State University, OH

9:34 AM EDT on March 24, 2017 (GMT -0400)
Ohio State University

Weather History for KOSU - October, 2011

Change the Weather History Date:

Saturday, October 15, 2011

  Actual Average Record
Temperature  
Mean Temperature 54 °F -  
Max Temperature 62 °F 62 °F 81 °F (2008)
Min Temperature 46 °F 40 °F 30 °F (2006)
Degree Days  
Heating Degree Days 11    
Growing Degree Days 4 (Base 50)    
Moisture  
Dew Point 38 °F    
Average Humidity 57    
Maximum Humidity 77    
Minimum Humidity 35    
Precipitation  
Precipitation 0.00 in - - ()
Sea Level Pressure  
Sea Level Pressure 29.80 in    
Wind  
Wind Speed 15 mph (WSW)    
Max Wind Speed 29 mph    
Max Gust Speed 43 mph    
Visibility 10 miles    
Events      
Averages and records for this station are not official NWS values.
T = Trace of Precipitation, MM = Missing Value Source: NWS Daily Summary

Daily Weather History Graph

Daily Weather History Graph

Search for Another Location

Airport or City:

Trip Planner

Search our weather history database for the weather conditions in past years. The results will help you decide how hot, cold, wet, or windy it might be!

Date:

Astronomy

Oct. 15, 2011 Rise Set
Actual Time 7:42 AM EDT 6:53 PM EDT
Civil Twilight 7:15 AM EDT 7:20 PM EDT
Nautical Twilight 6:43 AM EDT 7:51 PM EDT
Astronomical Twilight 6:12 AM EDT 8:23 PM EDT
Moon 8:48 PM EDT (10/15) 11:05 AM EDT (10/15)
Length of Visible Light 12h 05m
Length of Day
11h 10m
Waning Gibbous, 89% of the Moon is Illuminated
Oct 15
Waning Gibbous
Oct 19
Last Quarter
Oct 26
New
Nov 2
First Quarter
Nov 10
Full

Hourly Weather History & Observations

Time (EDT) Temp. Dew Point Humidity Pressure Visibility Wind Dir Wind Speed Gust Speed Precip Events Conditions
1:53 AM 51.1 °F 41.0 °F 68% 29.69 in 10.0 mi WSW 12.7 mph - N/A   Clear
2:53 AM 50.0 °F 41.0 °F 71% 29.70 in 10.0 mi WSW 10.4 mph - N/A   Clear
3:53 AM 50.0 °F 41.0 °F 71% 29.70 in 10.0 mi WSW 13.8 mph - N/A   Clear
4:53 AM 48.9 °F 41.0 °F 74% 29.71 in 10.0 mi WSW 11.5 mph 20.7 mph N/A   Clear
5:53 AM 48.0 °F 41.0 °F 77% 29.73 in 10.0 mi WSW 11.5 mph 20.7 mph N/A   Clear
6:53 AM 48.0 °F 39.9 °F 74% 29.74 in 10.0 mi WSW 16.1 mph 24.2 mph N/A   Clear
7:53 AM 46.9 °F 39.9 °F 77% 29.75 in 10.0 mi WSW 17.3 mph 23.0 mph N/A   Clear
8:45 AM 48.2 °F 39.2 °F 71% 29.76 in 10.0 mi WSW 17.3 mph 23.0 mph N/A   Mostly Cloudy
9:53 AM 50.0 °F 39.9 °F 68% 29.79 in 10.0 mi West 20.7 mph 31.1 mph N/A   Overcast
10:11 AM 51.8 °F 39.2 °F 62% 29.79 in 10.0 mi West 23.0 mph 34.5 mph N/A   Overcast
10:53 AM 53.1 °F 39.9 °F 61% 29.80 in 10.0 mi West 18.4 mph 31.1 mph N/A   Mostly Cloudy
1:53 PM 61.0 °F 34.0 °F 36% 29.80 in 10.0 mi West 25.3 mph 36.8 mph N/A   Clear
2:53 PM 62.1 °F 34.0 °F 35% 29.80 in 10.0 mi West 19.6 mph 32.2 mph N/A   Clear
3:53 PM 62.1 °F 34.0 °F 35% 29.81 in 10.0 mi West 28.8 mph 42.6 mph N/A   Clear
4:53 PM 61.0 °F 33.1 °F 35% 29.82 in 10.0 mi West 28.8 mph 41.4 mph N/A   Partly Cloudy
5:53 PM 60.1 °F 34.0 °F 38% 29.85 in 10.0 mi West 18.4 mph 24.2 mph N/A   Partly Cloudy
6:53 PM 57.9 °F 34.0 °F 41% 29.87 in 10.0 mi WSW 12.7 mph 24.2 mph N/A   Clear
7:53 PM 55.0 °F 35.1 °F 47% 29.89 in 10.0 mi WSW 11.5 mph - N/A   Clear
8:53 PM 54.0 °F 36.0 °F 51% 29.91 in 10.0 mi WSW 11.5 mph - N/A   Clear
9:53 PM 53.1 °F 36.0 °F 52% 29.93 in 10.0 mi WSW 11.5 mph - N/A   Clear
10:53 PM 52.0 °F 36.0 °F 54% 29.93 in 10.0 mi SW 9.2 mph - N/A   Clear
11:53 PM 50.0 °F 37.0 °F 61% 29.94 in 10.0 mi SW 9.2 mph - N/A   Clear